Weather History for New Philadelphia, OH

Change the Weather History Date:

Tuesday, June 25, 2013

  Actual Average Record
Temperature  
Mean Temperature 78 °F 71 °F  
Max Temperature 88 °F 82 °F 92 °F (1966)
Min Temperature 68 °F 60 °F 40 °F (1979)
Degree Days  
Heating Degree Days 0 0  
Month to date heating degree days 22 33  
Since 1 June heating degree days 22 33  
Since 1 July heating degree days 5607 5642  
Cooling Degree Days 13 6  
Month to date cooling degree days 107 111  
Year to date cooling degree days 205 154  
Since 1 June cooling degree days 107 111  
Growing Degree Days 28 (Base 50)    
Moisture  
Dew Point 66 °F    
Average Humidity 73    
Maximum Humidity 90    
Minimum Humidity 55    
Precipitation  
Precipitation 0.77 in 0.10 in 2.06 in (1981)
Month to date precipitation 4.62 3.31  
Year to date precipitation 14.66 18.91  
Sea Level Pressure  
Sea Level Pressure 29.97 in    
Wind  
Wind Speed 5 mph (SSW)    
Max Wind Speed 17 mph    
Max Gust Speed 25 mph    
Visibility 8 miles    
Events Rain , Thunderstorm    
T = Trace of Precipitation, MM = Missing Value Source: NWS Daily Summary

Daily Weather History Graph

Daily Weather History Graph

Search for Another Location

Airport:

Trip Planner

Search our weather history database for the weather conditions in past years. The results will help you decide how hot, cold, wet, or windy it might be!

Date:

Astronomy

Jun. 25, 2013 Rise Set
Actual Time 5:56 AM EDT 9:00 PM EDT
Civil Twilight 5:23 AM EDT 9:33 PM EDT
Nautical Twilight 4:41 AM EDT 10:15 PM EDT
Astronomical Twilight 3:51 AM EDT 11:05 PM EDT
Moon 10:43 PM EDT (6/25) 8:35 AM EDT (6/25)
Length of Visible Light 16h 09m
Length of Day
15h 03m
Waning Gibbous, 93% of the Moon is Illuminated
Jun 25
Waning Gibbous
Jun 30
Last Quarter
Jul 8
New
Jul 15
First Quarter
Jul 22
Full

Hourly Weather History & Observations

Time (EDT) Temp. Heat Index Dew Point Humidity Pressure Visibility Wind Dir Wind Speed Gust Speed Precip Events Conditions
12:53 AM 75.0 °F - 66.0 °F 73% 30.06 in 10.0 mi Variable 3.5 mph - N/A   Mostly Cloudy
1:53 AM 73.9 °F - 66.0 °F 76% 30.04 in 9.0 mi SSW 3.5 mph - N/A   Partly Cloudy
2:53 AM 72.0 °F - 66.0 °F 81% 29.98 in 9.0 mi South 3.5 mph - N/A   Clear
3:53 AM 71.1 °F - 66.9 °F 87% 30.00 in 8.0 mi Calm Calm - N/A   Clear
4:53 AM 71.1 °F - 66.9 °F 87% 30.00 in 8.0 mi SSE 3.5 mph - N/A   Clear
5:53 AM 70.0 °F - 66.0 °F 87% 30.01 in 6.0 mi Calm Calm - N/A   Clear
6:53 AM 71.1 °F - 66.0 °F 84% 30.02 in 6.0 mi SSW 3.5 mph - N/A   Haze
7:53 AM 73.0 °F - 64.9 °F 76% 30.04 in 9.0 mi Variable 4.6 mph - N/A   Clear
8:53 AM 75.0 °F - 66.9 °F 76% 30.05 in 8.0 mi WSW 4.6 mph - N/A   Clear
9:53 AM 78.1 °F - 66.9 °F 68% 30.04 in 9.0 mi SW 3.5 mph - N/A   Clear
10:53 AM 81.0 °F 83.8 °F 68.0 °F 65% 30.04 in 9.0 mi WNW 8.1 mph - N/A   Clear
11:53 AM 84.0 °F 87.0 °F 68.0 °F 58% 30.02 in 10.0 mi WNW 8.1 mph - N/A   Clear
12:53 PM 84.9 °F 88.8 °F 69.1 °F 59% 30.00 in 10.0 mi SW 5.8 mph - N/A   Scattered Clouds
1:53 PM 86.0 °F 90.7 °F 70.0 °F 59% 29.98 in 10.0 mi SW 9.2 mph - N/A   Mostly Cloudy
2:53 PM 87.1 °F 92.0 °F 70.0 °F 57% 29.96 in 10.0 mi SW 8.1 mph - N/A   Partly Cloudy
3:20 PM 86.0 °F 90.4 °F 69.8 °F 58% 29.97 in 10.0 mi SSW 8.1 mph 17.3 mph 0.00 in Thunderstorm Partly Cloudy
3:53 PM 86.0 °F 90.1 °F 69.1 °F 57% 29.94 in 9.0 mi Variable 3.5 mph - 0.00 in Rain , Thunderstorm Light Rain
4:19 PM 86.0 °F 90.4 °F 69.8 °F 58% 29.95 in 10.0 mi South 5.8 mph - 0.00 in   Scattered Clouds
4:29 PM 87.8 °F 92.6 °F 69.8 °F 55% 29.95 in 10.0 mi SSW 9.2 mph - 0.00 in Thunderstorm Partly Cloudy
4:44 PM 87.8 °F 92.6 °F 69.8 °F 55% 29.93 in 10.0 mi SSW 8.1 mph - 0.00 in   Partly Cloudy
4:53 PM 87.1 °F 91.3 °F 69.1 °F 55% 29.91 in 10.0 mi South 8.1 mph 16.1 mph 0.00 in Thunderstorm Partly Cloudy
5:53 PM 77.0 °F - 64.9 °F 66% 29.93 in 10.0 mi SW 5.8 mph - 0.00 in Thunderstorm Scattered Clouds
6:41 PM 73.4 °F - 62.6 °F 69% 29.95 in 10.0 mi South 8.1 mph - N/A   Clear
6:53 PM 73.0 °F - 64.0 °F 73% 29.92 in 10.0 mi Variable 3.5 mph - N/A   Scattered Clouds
7:01 PM 71.6 °F - 64.4 °F 78% 29.93 in 1.5 mi SSW 6.9 mph - 0.00 in Rain , Thunderstorm Light Rain
7:09 PM 71.6 °F - 64.4 °F 78% 29.93 in 10.0 mi South 6.9 mph - 0.00 in Thunderstorm Mostly Cloudy
7:25 PM 73.4 °F - 62.6 °F 69% 29.92 in 10.0 mi SSW 4.6 mph - 0.00 in   Partly Cloudy
7:33 PM 73.4 °F - 62.6 °F 69% 29.92 in 10.0 mi Variable 3.5 mph - 0.00 in Thunderstorm Thunderstorm
7:48 PM 71.6 °F - 62.6 °F 73% 29.92 in 10.0 mi SE 5.8 mph - 0.00 in   Clear
7:53 PM 72.0 °F - 62.1 °F 71% 29.91 in 10.0 mi SSE 5.8 mph - 0.00 in   Clear
8:53 PM 72.0 °F - 64.0 °F 76% 29.92 in 10.0 mi SSE 4.6 mph - N/A   Mostly Cloudy
9:40 PM 71.6 °F - 62.6 °F 73% 29.93 in 10.0 mi Calm Calm - N/A Thunderstorm Scattered Clouds
9:53 PM 72.0 °F - 63.0 °F 73% 29.90 in 10.0 mi East 4.6 mph - N/A Thunderstorm Thunderstorm
10:08 PM 71.6 °F - 64.4 °F 78% 29.94 in 2.5 mi Calm Calm - N/A Thunderstorm Unknown
10:17 PM 69.8 °F - 64.4 °F 83% 29.93 in 10.0 mi Variable 3.5 mph - 0.01 in Rain , Thunderstorm Light Thunderstorms and Rain
10:53 PM 69.1 °F - 64.0 °F 84% 29.92 in 6.0 mi SSE 11.5 mph - 0.15 in Rain Light Rain
11:01 PM 69.8 °F - 64.4 °F 83% 30.00 in 1.8 mi Variable 5.8 mph - 0.00 in Rain Light Rain
11:18 PM 69.8 °F - 64.4 °F 83% 29.97 in 3.0 mi NE 5.8 mph - 0.25 in Rain Light Rain
11:53 PM 68.0 °F - 66.0 °F 93% 29.91 in 7.0 mi SSE 8.1 mph - 0.42 in Rain , Thunderstorm Light Thunderstorms and Rain